Location: Proctor
(47.8934°N, 114.3048°W)
Time: 18:29:08
(UTC+00:00)

Transit 4A - Pass Details

Date: 19 May 2025
Orbit: 866 x 975 km, 66.8° (Epoch: 13 June)

Event Time Altitude Azimuth Distance (km) Brightness Sun altitude
Rises 04:19:39 0° 257° (WSW) 3,660 11.5 -9.6°
Reaches altitude 10° 04:22:40 10° 269° (W) 2,706 11.0 -9.9°
Maximum altitude 04:27:55 27° 325° (NW) 1,762 10.4 -10.5°
Drops below altitude 10° 04:33:07 10° 22° (NNE) 2,664 10.6 -11.1°
Sets 04:36:04 0° 35° (NE) 3,591 11.1 -11.5°
